sat.trackr.live / text

‹ back to catalog

STARLINK-34590

NORAD 64675 · 2025-139M

PAYLOAD ACTIVE UNKNOWN

§ Identity

Operator
Country
US
Launch date
2025-06-28
Launch site
AFETR
Launch vehicle
Mass (kg)
RCS (m²)

Purposes: comms

External: N2YO · Heavens-Above · Gunter

§ Orbital elements

Epoch: 2026-05-25T03:21:15.214752Z

Period
94.10 min
Inclination
53.1575°
Eccentricity
0.0001221
Mean motion
15.30209925 rev/d
Perigee alt
474.3 km
Apogee alt
476.0 km
Semi-major
6,853.3 km
B*
4.7441e-4
RAAN
132.3092°
Arg perigee
95.9520°
Mean anomaly
264.1620°
Rev number
5,198

§ Raw data

STARLINK-345901 64675U 25139M   26145.13975943  .00013722  00000+0  47441-3 0  99942 64675  53.1575 132.3092 0001221  95.9520 264.1620 15.30209925 51982

JSON: /api/v1/satellites/64675 · /tle

For live sub-satellite position, see the globe view (requires WebGL).

§ Visibility from observer

Set your observer location to see the next 7 days of passes ≥ 10°. The values pass through the URL so the page stays shareable.

No JS? Fill the form by hand. The geolocation button needs JavaScript.